Terminal Aerodrome Forecast
Issued by NWS

Home | Current Version | Previous Version | Text Only | Print | Product List | Glossary On
Versions: 1 2 3 4 5 6 7 8 9 10 11 12
000
FTUS42 TJSJ 271100
TAFNCM
TAF
TNCM 271130Z 2712/2812 10012KT P6SM SCT021
      TEMPO 2712/2713 BKN020
     FM271330 11015KT P6SM SCT018 SCT025
     FM272100 09010KT P6SM SCT022=

USA.gov is the U.S. government's official web portal to all federal, state and local government web resources and services.